Flag for U.S.A. Weather past 2 weeks in Lubbock, Texas, U.S.A.

Now
80 °F

Clear.


Feels Like: 80 °F
Forecast: 72 / 97 °F
Wind: 12 mph from South

Location: Lubbock International Airport

Current Time: Jul 26, 2014 at 3:03:34 AM

Latest Report: Jul 26, 2014 at 1:53 AM


Visibility: 10 mi

Pressure: 29.84 "Hg

Humidity: 39%

Dew point: 53 °F

Location of LubbockLocation

Historic Weather in Lubbock — Graph

°F

Lubbock temperature yesterday

Maximum temperature yesterday: 98 °F (at 2:53 PM)
Minimum temperature yesterday: 75 °F (at 6:53 AM)
Average temperature yesterday: 86 °F

Past Weeks' High & Low Weather Summary

 TemperatureHumidityPressure
High98 °F (Jul 21, 4:53 PM)97% (Jul 19, 5:00 AM)30.22 "Hg (Jul 19, 5:00 AM)
Low63 °F (Jul 18, 3:53 AM)18% (Jul 25, 5:53 PM)29.73 "Hg (Jul 16, 5:53 PM)
Average79 °F58%29.95 "Hg
* Reported Jul 11 1:53 AM — Jul 26 1:53 AM, Lubbock, Weather by CustomWeather, © 2014

Note: Actual official high and low records may vary slightly from our data, if they occured in-between our weather recording intervals... More about our weather records

Advertising

Lubbock weather history for previous 24 hours

 ConditionsComfort  
Time TempWeatherWind HumidityBarometerVisibility
1:53 AM
Jul 26
80 °FClear.12 mph39%29.84 "Hg10 mi
12:53 AM82 °FClear.16 mph35%29.84 "Hg10 mi
11:53 PM
Jul 25
83 °FClear.13 mph32%29.83 "Hg10 mi
10:53 PM83 °FClear.13 mph30%29.84 "Hg10 mi
9:53 PM87 °FClear.14 mph25%29.82 "Hg10 mi
8:53 PM89 °FPassing clouds.10 mph22%29.81 "Hg10 mi
7:53 PM94 °FPassing clouds.13 mph19%29.81 "Hg10 mi
6:53 PM97 °FPassing clouds.14 mph18%29.80 "Hg10 mi
5:53 PM98 °FPassing clouds.14 mph18%29.81 "Hg10 mi
4:53 PM98 °FPassing clouds.9 mph19%29.82 "Hg10 mi
3:53 PM98 °FPassing clouds.8 mph20%29.84 "Hg10 mi
2:53 PM98 °FPassing clouds.12 mph23%29.85 "Hg10 mi
1:53 PM97 °FPassing clouds.9 mph24%29.87 "Hg10 mi
12:53 PM94 °FPassing clouds.9 mph30%29.89 "Hg10 mi
11:53 AM92 °FSunny.12 mph31%29.91 "Hg10 mi
10:53 AM88 °FSunny.16 mph40%29.92 "Hg10 mi
9:53 AM84 °FPassing clouds.15 mph46%29.93 "Hg10 mi
8:53 AM80 °FPassing clouds.15 mph52%29.93 "Hg10 mi
7:53 AM76 °FPassing clouds.14 mph58%29.93 "Hg10 mi
6:53 AM75 °FPassing clouds.12 mph60%29.92 "Hg10 mi
5:53 AM76 °FPassing clouds.14 mph58%29.91 "Hg10 mi
4:53 AM76 °FClear.12 mph58%29.91 "Hg10 mi
3:53 AM78 °FClear.14 mph56%29.91 "Hg10 mi
Weather by CustomWeather, © 2014

See weather overviewHow to use our weather pages